Regional Weather Roundup
Issued by NWS San Diego, CA

Home | Current Version | Previous Version | Text Only | Print | Product List | Glossary On
Versions: 1 2 3 4 5 6 7 8 9 10 11 12 13 14 15 16 17 18 19 20 21 22 23 24 25 26 27 28 29 30 31 32 33 34 35 36 37 38 39 40 41 42 43 44 45 46 47 48 49 50
000
ASUS46 KSGX 300110
RWRSGX

SAN DIEGO HOURLY WEATHER ROUNDUP
NATIONAL WEATHER SERVICE SAN DIEGO CA
500 PM PST THU JAN 29 2015

NOTE: "FAIR" INDICATES FEW OR NO CLOUDS BELOW 12,000 FEET WITH NO
SIGNIFICANT WEATHER AND/OR OBSTRUCTIONS TO VISIBILITY.

CAZ042-043-060-061-PZZ750-775-300200-

GREATER SAN DIEGO AREA

CITY           SKY/WX    TMP DP  RH WIND       PRES   REMARKS
LINDBERGH FLD  CLOUDY    65  53  65 N5        30.00F
NATIONAL CITY    N/A     63  59  86 CALM      29.99F
CHULA VISTA      N/A     63  59  87 CALM      29.92F
IMPERIAL BEACH CLOUDY    64  58  80 N6        29.99S
BROWN FIELD    CLOUDY    61  56  83 CALM      29.99S
MIRAMAR MCAS   CLOUDY    64  52  64 NW5       29.99F
MONTGOMERY FLD CLOUDY    64  53  67 N7        30.00F

$$

NORTH SAN DIEGO COUNTY

CITY           SKY/WX    TMP DP  RH WIND       PRES   REMARKS
CAMP PENDLETON CLOUDY    64  51  62 VRB3      29.99F
OCEANSIDE AP   CLOUDY    64  53  67 SW3       29.98F
OCEANSIDE HBR    N/A     64  57  79 SW1       30.01F
VISTA            N/A     64  51  64 CALM      29.98F
CARLSBAD       CLOUDY    63  52  67 CALM      29.99S
DEL MAR          N/A     62  57  82 CALM      30.01F
LA JOLLA SCRIP   N/A     63  56  79 CALM      29.97F
FALLBROOK        N/A     62  52  68 CALM      30.01F
ESCONDIDO        N/A     64  50  60 CALM      30.01S
SAN MARCOS       N/A     64  51  63 CALM      29.98F
POWAY            N/A     63  55  73 CALM      30.01F

$$

EAST SAN DIEGO COUNTY

CITY           SKY/WX    TMP DP  RH WIND       PRES   REMARKS
RAMONA         CLOUDY    59  50  72 NW7       30.00F
SANTEE LAKES     N/A     62  56  79 CALM      30.00F
LA MESA          N/A     62  55  77 NW5       29.93F
JAMUL            N/A     59  54  84 CALM      29.98S
DESCANSO N       N/A     52  47  82 E5        29.86F
MT. LAGUNA OBS   N/A     42  35  75 E10       29.65F
CAMPO            N/A     59  42  53 NE3       29.98F

$$

ORANGE COUNTY AND THE LOS ANGELES BASIN

CITY           SKY/WX    TMP DP  RH WIND       PRES   REMARKS
JOHN WAYNE AP  CLOUDY    69  49  48 CALM      29.98F
LAGUNA BEACH     N/A     62  57  82 CALM      29.95S
LAKE FOREST FR   N/A     65  46  49 CALM      29.89
SANTA ANA        N/A     69  50  50 CALM      29.95R
HUNTINGTON BCH   N/A     64  57  78 CALM      30.01S
LOS ALAMITOS   CLOUDY    64  55  74 S5        29.99S
FULLERTON      CLOUDY    68  52  56 W3        29.99R
LONG BEACH     CLOUDY    65  53  65 S3        29.99S
L.A. AP        CLOUDY    64  53  67 W7        29.99S
L.A. DOWNTOWN  CLOUDY    68  48  48 VRB3      29.98S

$$

THE INLAND EMPIRE

CITY           SKY/WX    TMP DP  RH WIND       PRES   REMARKS
CORONA         CLOUDY    70  42  36 CALM      29.99F
CHINO          CLOUDY    68  45  43 CALM      30.00F
ONTARIO        CLOUDY    70  37  29 SE7       29.99F
SAN BERNARDINO CLOUDY    66  34  30 E9        30.00F
RIVERSIDE AP   CLOUDY    69  36  29 E5        29.99F
RIV CYN CREST    N/A     69  47  45 SE6         N/A
MORENO VALLEY    N/A     63  46  55 E5        29.21F
MARCH ARB      CLOUDY    62  44  52 N6        30.01F
HORSETHIEF CYN   N/A     65  37  34 SE5       29.95F
PERRIS           N/A     64  45  49 CALM        N/A
MENIFEE          N/A     66  43  43 NW10      30.07F
HEMET EAST       N/A     60  38  42 CALM      30.01S
FRENCH VALLEY  CLOUDY    63  46  55 SW3       30.01S
TEMECULA         N/A     65  49  55 NE1       29.96F

$$

SAN BERNARDINO AND RIVERSIDE COUNTY MOUNTAINS

CITY           SKY/WX    TMP DP  RH WIND       PRES   REMARKS
BIG BEAR AP    CLOUDY    37  28  70 E6        30.15F WCI  33
PINE COVE        N/A     46  29  52 CALM      29.99F

$$

SOUTHERN DESERT INCLUDING THE COACHELLA VALLEY

CITY           SKY/WX    TMP DP  RH WIND       PRES   REMARKS
PALM SPRINGS   CLOUDY    74  40  29 NW6       29.99S
THOUSAND PALMS   N/A     70  47  43 E3        29.96
PALM DESERT      N/A     70  50  49 CALM      27.39S
THERMAL        CLOUDY    67  49  52 NW3       29.95F
BLYTHE         CLOUDY    67  52  58 NE7       29.98F
IMPERIAL AP    CLOUDY    70  49  47 CALM      29.96S
EL CENTRO NAS  CLOUDY    69  51  52 CALM      29.96S
YUMA AZ        CLOUDY    70  49  47 NE5       29.97S
MEXICALI       CLOUDY    70  48  46 NW5       29.97

$$

UPPER DESERT

CITY           SKY/WX    TMP DP  RH WIND       PRES   REMARKS
VICTORVILLE AP CLOUDY    59  37  44 NE6       30.08S
HESPERIA         N/A     59  43  56 CALM      30.18F
APPLE VALLEY     N/A     61  39  44 CALM      30.10F
PALMDALE       CLOUDY    60  44  55 NE6       30.06F
LANCASTER      CLOUDY    60  44  55 NE5       30.06F
EDWARDS AFB    CLOUDY    62  44  53 CALM      30.04F
DAGGETT        CLOUDY    63  41  44 E3        30.06S
29 PALMS N     CLOUDY    61  44  53 NW7       30.10F
NEEDLES        CLOUDY    68  40  35 N5        30.01F

$$

REGIONAL REPORTS

CITY           SKY/WX    TMP DP  RH WIND       PRES   REMARKS
SANTA BARBARA  MOCLDY    68  51  54 NW3       29.98S
SANDBERG       CLOUDY    54  37  52 E9        30.11F
MT. WILSON       N/A     48  36  61 NE1         N/A
LAS VEGAS NV   CLOUDY    63  35  35 CALM      30.05R
PHOENIX AZ     LGT RAIN  63  55  75 S5        30.05R
TIJUANA        CLOUDY    61  54  77 NW7       30.01S

$$

OFFSHORE ISLANDS

CITY           SKY/WX    TMP DP  RH WIND       PRES   REMARKS
CATALINA ARPT  CLOUDY    63  41  44 S5        30.03S
SAN CLEMENTE I MOCLDY    64  57  78 S8        30.01S
SAN NICOLAS IS CLOUDY   N/A N/A N/A W9        29.99R

$$

MARINE AND OFFSHORE BUOY REPORTS

STATION/POSITION SKY/WX   TEMP    WIND        PRES    SWELL
                          AIR SEA DIR/SP/G            HT/PER/DIR
                          (F)     (DEG/KT/KT) (MB)    (FT/S/D)
TANNER BANKS               62 62  200/  6/  8 1015.7F   5/290/13
S CLEMENTE BASIN           62 62  320/  6/  8 1015.5R   5/290/13
SAN NICOLAS IS.               62                N/A     3/300/18
SO. S. ROSA ISLA           61 61  330/ 12/ 16 1015.0R   5/13
W. S. BARBARA CH           60 60  310/ 16/ 17 1015.1F   3/270/12
S. MONICA BASIN            62 62  360/  8/  8 1015.8F   3/250/12
S PEDRO CHANNEL               62                N/A     2/260/12
DANA POINT                    62                N/A     2/270/13
CMP PENDLETON NS              62                N/A     2/230/12
OCEANSIDE OFFSHR              62                N/A     2/250/11
TORREY PINES OTR              62                N/A     2/250/12
LA JOLLA 1                 63 62   CALM  /  1 1015.6F
MISSION BAY BUOY              62                N/A     3/260/13
SAN DIEGO BAY                 62              1015.8F
POINT LOMA SOUTH              62                N/A     3/250/13

$$



USA.gov is the U.S. government's official web portal to all federal, state and local government web resources and services.